Location: Unspecified
(0.0000°N, 0.0000°E)
Time: 01:14:55
(UTC+00:00)

deb Kosmos-1275 - Pass Details

Date: 11 March 2026
Orbit: 928 x 975 km, 82.8° (Epoch: 14 April)

Event Time Altitude Azimuth Distance (km) Brightness Sun altitude
Rises 18:24:38 0° 176° (S) 3,577 ? -3.7°
Reaches altitude 10° 18:27:09 10° 172° (S) 2,630 ? -4.3°
Maximum altitude 18:33:02 58° 93° (E) 1,069 ? -5.8°
Drops below altitude 10° 18:38:54 10° 15° (NNE) 2,628 ? -7.2°
Sets 18:41:24 0° 11° (NNE) 3,574 ? -7.9°
